AMOS-3

Last updated on Wed Sep 09 2026 00:02:58 GMT+0000 (Coordinated Universal Time)

1 32794U 08022A 26251.46050656 -.00000137 00000+0 00000+0 0 9995 2 32794 0.6636 84.8480 0002070 49.2924 97.1489 1.00270837 83174
UTC large
Height (km)
Speed (km/s)
/
Latitude / Longitude
Inclination (degrees)
Orbital Period (minutes)
Azimuth
Elevation
Range (km)
Doppler Factor

Next 0 passes for location: London (51.5072 / 0.1276)

No passes found over London.
AMOS-3